GLOBALSTAR M046 (25651 NORAD) Tracking and Keplerian Element Data

This shows tracking and keplerian element data for the satellite.

Feedback or suggestion? Click here.




ElementValue
Catalog25651
NameGLOBALSTAR M046
Epoch Orbit16753
Epoch Day34.87937611
Epoch Year2025
RAAN248.295
Inclination52.0026
Eccentricity0.000238
Argument of Perigee13.7004
Mean Anonmoly91.6254
Mean Motion12.09405067
Decay Rate-1.48E-06
L11 25651U 99012C 25034.87937611 -.00000148 00000+0 -65467-3 0 9991
L22 25651 52.0026 248.2950 0002380 13.7004 91.6254 12.09405067167537



Live tracking and technical data element details for GLOBALSTAR M046 (NORAD 25651). GLOBALSTAR M046 can be tracked NOW for your location showing map with azimuth and elevation plus other details from your city location.







IsCatalogInMostPopularTable: catalog: 25651, numindb: 371
Update: records affected: 1



GetName: 25651 GLOBALSTAR M046

Hit Count: updated at: Sat, 17 May 2025 08:18:59 GMT